QPF
0.00 0.00 0.00 0.00 0.00 0.00 0.01 0.00 0.01 0.02 0.03 0.01 0.00 0.00 0.00 0.01 0.02 0.04 0.04 0.05 0.07 0.11 0.12 0.09 0.09 0.10 0.12 0.12 0.12 0.11 0.10 0.09 0.08 0.10 0.12 0.08 0.07 0.07 0.08 0.08 0.07 0.06 0.07 0.09 0.11 0.12 0.09 0.06 0.06
0.00 0.00 0.00 0.00 0.00 0.00 0.01 0.01 0.01 0.02 0.01 0.01 0.01 0.00 0.00 0.01 0.01 0.04 0.06 0.07 0.07 0.07 0.07 0.06 0.07 0.08 0.09 0.09 0.07 0.08 0.08 0.08 0.08 0.08 0.10 0.07 0.07 0.07 0.07 0.06 0.06 0.06 0.05 0.05 0.07 0.11 0.09 0.08 0.08
0.00 0.00 0.00 0.00 0.00 0.00 0.01 0.01 0.01 0.00 0.00 0.00 0.01 0.01 0.02 0.02 0.02 0.05 0.07 0.06 0.06 0.05 0.04 0.05 0.07 0.08 0.10 0.10 0.08 0.08 0.10 0.12 0.12 0.11 0.10 0.06 0.06 0.07 0.08 0.09 0.07 0.11 0.13 0.12 0.07 0.11 0.10 0.09 0.08
0.00 0.00 0.00 0.00 0.00 0.00 0.00 0.00 0.00 0.00 0.00 0.00 0.01 0.03 0.03 0.03 0.03 0.04 0.05 0.05 0.06 0.04 0.02 0.05 0.09 0.12 0.14 0.11 0.08 0.09 0.10 0.13 0.14 0.12 0.10 0.08 0.08 0.07 0.09 0.11 0.11 0.17 0.19 0.19 0.15 0.11 0.07 0.07 0.07
0.00 0.00 0.00 0.00 0.00 0.00 0.00 0.00 0.00 0.00 0.00 0.01 0.01 0.03 0.05 0.05 0.03 0.02 0.02 0.03 0.04 0.04 0.03 0.06 0.10 0.16 0.17 0.12 0.10 0.10 0.09 0.10 0.10 0.10 0.11 0.10 0.10 0.09 0.10 0.09 0.10 0.15 0.21 0.22 0.15 0.09 0.06 0.06 0.05
0.00 0.00 0.00 0.00 0.00 0.00 0.00 0.00 0.00 0.00 0.01 0.01 0.02 0.03 0.06 0.04 0.02 0.01 0.01 0.02 0.02 0.03 0.05 0.09 0.12 0.18 0.16 0.13 0.12 0.10 0.08 0.06 0.07 0.07 0.08 0.07 0.08 0.09 0.11 0.08 0.06 0.08 0.12 0.12 0.09 0.07 0.06 0.04 0.04
0.00 0.00 0.00 0.00 0.00 0.00 0.00 0.00 0.00 0.00 0.00 0.00 0.02 0.04 0.05 0.04 0.03 0.02 0.01 0.01 0.01 0.03 0.05 0.11 0.22 0.18 0.13 0.13 0.11 0.10 0.07 0.05 0.06 0.06 0.07 0.08 0.08 0.09 0.09 0.09 0.07 0.06 0.08 0.09 0.07 0.06 0.06 0.04 0.04
0.00 0.00 0.00 0.00 0.00 0.00 0.00 0.00 0.00 0.00 0.00 0.00 0.01 0.03 0.04 0.05 0.03 0.02 0.02 0.02 0.02 0.03 0.06 0.13 0.21 0.14 0.12 0.12 0.10 0.09 0.08 0.06 0.06 0.07 0.09 0.08 0.09 0.09 0.08 0.09 0.09 0.08 0.07 0.07 0.06 0.05 0.04 0.04 0.04
0.00 0.00 0.00 0.00 0.00 0.00 0.00 0.00 0.00 0.00 0.00 0.00 0.00 0.01 0.02 0.03 0.03 0.02 0.03 0.05 0.05 0.04 0.05 0.07 0.11 0.14 0.12 0.09 0.08 0.09 0.08 0.06 0.05 0.08 0.08 0.07 0.09 0.08 0.08 0.07 0.08 0.07 0.07 0.07 0.07 0.06 0.05 0.04 0.04
0.00 0.00 0.00 0.00 0.00 0.00 0.00 0.00 0.00 0.00 0.00 0.00 0.00 0.00 0.00 0.02 0.03 0.02 0.03 0.03 0.03 0.03 0.04 0.05 0.06 0.09 0.08 0.06 0.09 0.10 0.06 0.06 0.05 0.07 0.06 0.07 0.07 0.07 0.09 0.09 0.07 0.05 0.05 0.06 0.06 0.06 0.05 0.04 0.03
0.00 0.00 0.00 0.00 0.00 0.00 0.00 0.00 0.00 0.00 0.00 0.00 0.00 0.00 0.00 0.01 0.02 0.02 0.01 0.01 0.01 0.02 0.03 0.03 0.03 0.06 0.06 0.04 0.06 0.06 0.05 0.04 0.04 0.05 0.05 0.06 0.05 0.05 0.07 0.10 0.08 0.06 0.05 0.05 0.05 0.06 0.07 0.06 0.04
0.00 0.00 0.00 0.00 0.00 0.00 0.00 0.00 0.00 0.00 0.00 0.00 0.00 0.00 0.00 0.01 0.01 0.02 0.01 0.01 0.01 0.01 0.02 0.04 0.04 0.06 0.07 0.04 0.04 0.03 0.02 0.02 0.03 0.05 0.06 0.06 0.07 0.06 0.07 0.08 0.09 0.08 0.06 0.06 0.05 0.06 0.08 0.06 0.04
0.00 0.00 0.00 0.00 0.00 0.00 0.00 0.00 0.00 0.00 0.00 0.00 0.00 0.00 0.00 0.00 0.01 0.01 0.01 0.01 0.01 0.01 0.01 0.02 0.03 0.05 0.05 0.05 0.04 0.03 0.02 0.01 0.02 0.03 0.03 0.04 0.06 0.07 0.08 0.07 0.07 0.07 0.05 0.05 0.05 0.06 0.07 0.06 0.05
0.00 0.00 0.00 0.00 0.00 0.00 0.00 0.00 0.00 0.00 0.00 0.00 0.00 0.00 0.00 0.00 0.00 0.01 0.01 0.01 0.01 0.01 0.01 0.01 0.02 0.04 0.05 0.04 0.03 0.02 0.02 0.02 0.03 0.04 0.04 0.04 0.05 0.07 0.08 0.07 0.08 0.07 0.06 0.05 0.05 0.05 0.07 0.07 0.07
0.00 0.00 0.00 0.00 0.00 0.00 0.00 0.00 0.00 0.00 0.00 0.00 0.00 0.00 0.00 0.00 0.00 0.00 0.00 0.00 0.00 0.01 0.01 0.01 0.01 0.03 0.04 0.05 0.03 0.03 0.03 0.03 0.03 0.05 0.04 0.03 0.04 0.06 0.06 0.07 0.07 0.06 0.05 0.05 0.06 0.06 0.05 0.07 0.09
0.00 0.00 0.00 0.00 0.00 0.00 0.00 0.00 0.00 0.00 0.00 0.00 0.00 0.00 0.00 0.00 0.00 0.00 0.00 0.00 0.00 0.00 0.00 0.01 0.01 0.02 0.04 0.05 0.03 0.03 0.02 0.02 0.03 0.04 0.03 0.03 0.04 0.05 0.05 0.06 0.05 0.05 0.04 0.06 0.06 0.07 0.05 0.08 0.09
0.00 0.01 0.00 0.00 0.00 0.00 0.00 0.00 0.00 0.00 0.00 0.00 0.00 0.00 0.00 0.00 0.00 0.00 0.00 0.00 0.00 0.00 0.00 0.00 0.01 0.02 0.03 0.04 0.03 0.03 0.02 0.02 0.02 0.03 0.03 0.03 0.04 0.04 0.04 0.06 0.06 0.05 0.06 0.07 0.07 0.06 0.07 0.09 0.09
0.00 0.01 0.00 0.00 0.00 0.00 0.00 0.00 0.00 0.00 0.00 0.00 0.00 0.00 0.00 0.00 0.00 0.00 0.00 0.00 0.00 0.00 0.00 0.01 0.01 0.02 0.03 0.05 0.04 0.03 0.03 0.03 0.03 0.02 0.03 0.03 0.04 0.04 0.05 0.07 0.08 0.07 0.09 0.10 0.12 0.09 0.07 0.07 0.09
0.00 0.00 0.00 0.00 0.00 0.00 0.00 0.00 0.00 0.00 0.00 0.00 0.00 0.00 0.00 0.00 0.00 0.00 0.00 0.00 0.00 0.00 0.00 0.01 0.01 0.02 0.03 0.03 0.03 0.03 0.04 0.04 0.03 0.02 0.02 0.03 0.03 0.04 0.06 0.06 0.10 0.10 0.11 0.13 0.15 0.12 0.09 0.08 0.07
0.00 0.00 0.00 0.00 0.00 0.00 0.00 0.00 0.00 0.00 0.00 0.00 0.00 0.00 0.00 0.00 0.00 0.00 0.00 0.00 0.00 0.00 0.00 0.01 0.01 0.01 0.01 0.02 0.02 0.02 0.03 0.03 0.03 0.02 0.03 0.03 0.04 0.04 0.04 0.07 0.11 0.12 0.13 0.13 0.12 0.13 0.11 0.08 0.06
0.00 0.00 0.00 0.00 0.00 0.00 0.00 0.00 0.00 0.00 0.00 0.00 0.00 0.00 0.00 0.00 0.00 0.00 0.00 0.00 0.00 0.00 0.01 0.01 0.01 0.01 0.01 0.02 0.02 0.02 0.02 0.02 0.02 0.02 0.03 0.02 0.02 0.02 0.03 0.05 0.09 0.12 0.10 0.10 0.12 0.13 0.11 0.10 0.07
0.00 0.00 0.00 0.00 0.00 0.00 0.00 0.00 0.00 0.00 0.00 0.00 0.00 0.00 0.00 0.00 0.00 0.00 0.00 0.00 0.00 0.00 0.01 0.00 0.00 0.01 0.01 0.01 0.02 0.02 0.02 0.02 0.04 0.03 0.03 0.02 0.02 0.03 0.03 0.05 0.06 0.08 0.07 0.10 0.09 0.10 0.10 0.10 0.09
0.00 0.00 0.00 0.00 0.00 0.00 0.00 0.00 0.00 0.00 0.00 0.00 0.00 0.00 0.00 0.00 0.00 0.00 0.00 0.00 0.00 0.00 0.00 0.00 0.00 0.01 0.01 0.01 0.02 0.02 0.02 0.02 0.03 0.03 0.03 0.02 0.02 0.02 0.03 0.02 0.03 0.05 0.06 0.08 0.09 0.11 0.11 0.09 0.08
0.00 0.00 0.01 0.00 0.00 0.00 0.00 0.00 0.00 0.00 0.00 0.00 0.00 0.00 0.00 0.00 0.00 0.00 0.00 0.00 0.00 0.00 0.00 0.00 0.01 0.01 0.00 0.01 0.01 0.01 0.01 0.02 0.02 0.03 0.03 0.02 0.02 0.03 0.04 0.04 0.03 0.03 0.04 0.06 0.08 0.11 0.11 0.09 0.08
0.00 0.01 0.01 0.01 0.00 0.00 0.00 0.00 0.00 0.00 0.00 0.00 0.00 0.00 0.00 0.00 0.00 0.00 0.00 0.00 0.00 0.00 0.00 0.00 0.01 0.02 0.02 0.01 0.01 0.01 0.02 0.02 0.02 0.03 0.03 0.03 0.03 0.03 0.04 0.04 0.05 0.04 0.03 0.05 0.08 0.10 0.09 0.09 0.09
0.00 0.00 0.01 0.01 0.00 0.00 0.00 0.00 0.00 0.00 0.00 0.00 0.00 0.00 0.00 0.00 0.00 0.00 0.00 0.00 0.01 0.01 0.02 0.03 0.03 0.04 0.03 0.02 0.02 0.02 0.03 0.04 0.03 0.04 0.04 0.05 0.04 0.04 0.04 0.04 0.04 0.04 0.03 0.04 0.07 0.09 0.08 0.08 0.08
0.00 0.00 0.00 0.00 0.00 0.00 0.00 0.00 0.00 0.00 0.00 0.00 0.00 0.00 0.00 0.00 0.00 0.00 0.01 0.01 0.02 0.03 0.04 0.05 0.04 0.04 0.04 0.03 0.02 0.03 0.05 0.08 0.06 0.04 0.05 0.04 0.04 0.04 0.04 0.03 0.03 0.03 0.04 0.05 0.06 0.07 0.07 0.07 0.07
0.00 0.00 0.00 0.00 0.00 0.00 0.00 0.00 0.00 0.00 0.00 0.00 0.00 0.00 0.00 0.00 0.00 0.01 0.01 0.02 0.02 0.02 0.02 0.03 0.03 0.04 0.04 0.05 0.04 0.04 0.04 0.05 0.05 0.05 0.05 0.04 0.04 0.04 0.03 0.03 0.02 0.03 0.05 0.06 0.07 0.07 0.06 0.05 0.04
0.00 0.00 0.00 0.00 0.00 0.00 0.00 0.00 0.00 0.00 0.00 0.00 0.00 0.00 0.00 0.00 0.00 0.00 0.01 0.01 0.01 0.01 0.01 0.01 0.02 0.04 0.05 0.05 0.05 0.06 0.06 0.05 0.05 0.05 0.05 0.04 0.04 0.03 0.02 0.02 0.02 0.03 0.04 0.05 0.06 0.05 0.04 0.03 0.03
0.00 0.00 0.00 0.00 0.00 0.00 0.00 0.00 0.00 0.00 0.00 0.00 0.00 0.00 0.00 0.00 0.00 0.00 0.00 0.00 0.00 0.00 0.00 0.02 0.07 0.12 0.15 0.12 0.08 0.06 0.05 0.04 0.03 0.04 0.04 0.04 0.03 0.03 0.03 0.02 0.02 0.03 0.03 0.03 0.03 0.03 0.02 0.03 0.02
MSLP
1004.46 1004.91 1005.47 1006.07 1006.65 1007.15 1007.51 1007.73 1007.85 1007.90 1007.95 1008.05 1008.23 1008.45 1008.68 1008.85 1008.89 1008.76 1008.48 1008.09 1007.69 1007.36 1007.21 1007.28 1007.59 1008.11 1008.74 1009.41 1010.01 1010.50 1010.85 1011.08 1011.24 1011.39 1011.57 1011.82 1012.12 1012.46 1012.81 1013.15 1013.45 1013.72 1013.96 1014.21 1014.47 1014.75 1015.03 1015.30 1015.54
1004.54 1005.02 1005.60 1006.22 1006.80 1007.29 1007.64 1007.84 1007.93 1007.95 1007.98 1008.05 1008.19 1008.39 1008.60 1008.76 1008.81 1008.72 1008.50 1008.18 1007.87 1007.64 1007.58 1007.73 1008.12 1008.68 1009.34 1010.01 1010.60 1011.07 1011.40 1011.61 1011.75 1011.87 1012.03 1012.24 1012.51 1012.81 1013.13 1013.43 1013.71 1013.97 1014.22 1014.48 1014.76 1015.07 1015.38 1015.66 1015.90
1004.72 1005.22 1005.80 1006.40 1006.96 1007.41 1007.72 1007.90 1007.96 1007.96 1007.96 1008.01 1008.13 1008.31 1008.50 1008.65 1008.70 1008.63 1008.46 1008.21 1007.99 1007.85 1007.89 1008.14 1008.59 1009.20 1009.88 1010.55 1011.14 1011.59 1011.91 1012.10 1012.23 1012.34 1012.48 1012.67 1012.91 1013.18 1013.46 1013.73 1013.99 1014.23 1014.49 1014.76 1015.07 1015.39 1015.72 1016.01 1016.24
1004.96 1005.46 1006.02 1006.58 1007.08 1007.48 1007.76 1007.90 1007.94 1007.93 1007.93 1007.97 1008.08 1008.24 1008.41 1008.54 1008.59 1008.54 1008.40 1008.23 1008.08 1008.04 1008.17 1008.50 1009.01 1009.66 1010.36 1011.03 1011.61 1012.05 1012.36 1012.55 1012.68 1012.79 1012.93 1013.11 1013.33 1013.58 1013.83 1014.07 1014.31 1014.54 1014.79 1015.08 1015.39 1015.73 1016.06 1016.35 1016.55
1005.20 1005.68 1006.20 1006.69 1007.13 1007.48 1007.71 1007.83 1007.87 1007.87 1007.88 1007.94 1008.05 1008.20 1008.36 1008.48 1008.53 1008.49 1008.38 1008.26 1008.19 1008.23 1008.44 1008.84 1009.40 1010.08 1010.78 1011.45 1012.01 1012.44 1012.74 1012.94 1013.08 1013.21 1013.36 1013.55 1013.77 1014.01 1014.24 1014.47 1014.68 1014.91 1015.15 1015.43 1015.74 1016.07 1016.38 1016.64 1016.81
1005.39 1005.83 1006.28 1006.70 1007.07 1007.36 1007.55 1007.67 1007.73 1007.77 1007.82 1007.92 1008.06 1008.23 1008.39 1008.50 1008.54 1008.51 1008.43 1008.35 1008.34 1008.45 1008.72 1009.17 1009.77 1010.46 1011.16 1011.81 1012.35 1012.76 1013.05 1013.26 1013.42 1013.57 1013.76 1013.97 1014.21 1014.45 1014.68 1014.90 1015.10 1015.31 1015.53 1015.79 1016.08 1016.37 1016.65 1016.86 1016.99
1005.49 1005.87 1006.24 1006.59 1006.88 1007.12 1007.30 1007.43 1007.53 1007.63 1007.75 1007.91 1008.10 1008.30 1008.47 1008.59 1008.64 1008.62 1008.56 1008.52 1008.55 1008.72 1009.04 1009.52 1010.14 1010.82 1011.49 1012.11 1012.62 1013.01 1013.29 1013.50 1013.68 1013.88 1014.09 1014.35 1014.61 1014.88 1015.12 1015.33 1015.52 1015.71 1015.91 1016.13 1016.37 1016.62 1016.84 1016.99 1017.06
1005.50 1005.81 1006.10 1006.36 1006.59 1006.79 1006.97 1007.12 1007.28 1007.46 1007.67 1007.91 1008.16 1008.41 1008.60 1008.74 1008.79 1008.79 1008.75 1008.75 1008.82 1009.03 1009.38 1009.88 1010.49 1011.15 1011.79 1012.36 1012.83 1013.19 1013.45 1013.67 1013.87 1014.10 1014.36 1014.65 1014.95 1015.24 1015.49 1015.71 1015.89 1016.06 1016.22 1016.40 1016.60 1016.78 1016.94 1017.03 1017.03
1005.43 1005.67 1005.88 1006.06 1006.24 1006.41 1006.59 1006.79 1007.01 1007.27 1007.57 1007.89 1008.21 1008.51 1008.74 1008.90 1008.97 1008.98 1008.97 1009.00 1009.11 1009.35 1009.73 1010.23 1010.83 1011.46 1012.05 1012.57 1012.99 1013.30 1013.55 1013.76 1013.98 1014.24 1014.54 1014.86 1015.20 1015.51 1015.78 1016.00 1016.17 1016.32 1016.45 1016.59 1016.73 1016.86 1016.95 1016.98 1016.93
1005.32 1005.48 1005.62 1005.75 1005.88 1006.04 1006.23 1006.46 1006.75 1007.08 1007.46 1007.85 1008.23 1008.57 1008.84 1009.02 1009.11 1009.15 1009.17 1009.23 1009.37 1009.64 1010.03 1010.54 1011.12 1011.71 1012.25 1012.72 1013.09 1013.37 1013.59 1013.80 1014.03 1014.31 1014.64 1014.99 1015.35 1015.68 1015.96 1016.18 1016.34 1016.47 1016.57 1016.67 1016.77 1016.85 1016.90 1016.88 1016.80
1005.20 1005.31 1005.39 1005.47 1005.57 1005.72 1005.91 1006.18 1006.51 1006.89 1007.32 1007.76 1008.19 1008.56 1008.85 1009.05 1009.17 1009.23 1009.29 1009.38 1009.56 1009.85 1010.26 1010.77 1011.33 1011.88 1012.38 1012.80 1013.13 1013.38 1013.58 1013.79 1014.03 1014.32 1014.67 1015.05 1015.42 1015.77 1016.05 1016.26 1016.41 1016.51 1016.60 1016.67 1016.74 1016.80 1016.81 1016.78 1016.68
1005.10 1005.18 1005.23 1005.28 1005.35 1005.49 1005.69 1005.96 1006.31 1006.72 1007.17 1007.64 1008.08 1008.46 1008.77 1008.98 1009.12 1009.22 1009.30 1009.43 1009.65 1009.96 1010.38 1010.89 1011.43 1011.95 1012.42 1012.80 1013.10 1013.33 1013.53 1013.74 1013.99 1014.30 1014.66 1015.05 1015.43 1015.77 1016.05 1016.25 1016.39 1016.48 1016.55 1016.61 1016.67 1016.72 1016.74 1016.70 1016.59
1005.07 1005.13 1005.16 1005.19 1005.25 1005.37 1005.56 1005.83 1006.16 1006.57 1007.01 1007.46 1007.89 1008.27 1008.58 1008.81 1008.97 1009.09 1009.21 1009.37 1009.62 1009.95 1010.38 1010.88 1011.40 1011.91 1012.35 1012.72 1013.01 1013.24 1013.44 1013.66 1013.92 1014.25 1014.62 1015.01 1015.39 1015.73 1015.99 1016.18 1016.30 1016.38 1016.44 1016.51 1016.58 1016.64 1016.67 1016.66 1016.57
1005.12 1005.18 1005.20 1005.21 1005.26 1005.36 1005.52 1005.76 1006.06 1006.43 1006.83 1007.25 1007.65 1008.02 1008.32 1008.56 1008.74 1008.88 1009.03 1009.22 1009.49 1009.84 1010.27 1010.76 1011.27 1011.76 1012.19 1012.55 1012.84 1013.08 1013.30 1013.55 1013.83 1014.17 1014.55 1014.94 1015.32 1015.64 1015.89 1016.06 1016.17 1016.24 1016.30 1016.38 1016.47 1016.56 1016.63 1016.65 1016.60
1005.27 1005.32 1005.32 1005.33 1005.35 1005.42 1005.54 1005.73 1005.98 1006.29 1006.64 1007.01 1007.38 1007.72 1008.02 1008.26 1008.47 1008.64 1008.82 1009.03 1009.30 1009.65 1010.07 1010.55 1011.04 1011.52 1011.94 1012.31 1012.61 1012.87 1013.12 1013.39 1013.70 1014.05 1014.44 1014.84 1015.21 1015.52 1015.75 1015.91 1016.01 1016.07 1016.14 1016.23 1016.34 1016.47 1016.59 1016.67 1016.67
1005.50 1005.52 1005.51 1005.49 1005.48 1005.51 1005.58 1005.70 1005.89 1006.13 1006.41 1006.73 1007.07 1007.39 1007.69 1007.96 1008.19 1008.40 1008.60 1008.83 1009.11 1009.45 1009.85 1010.30 1010.77 1011.23 1011.65 1012.01 1012.33 1012.62 1012.89 1013.19 1013.52 1013.88 1014.28 1014.68 1015.04 1015.35 1015.57 1015.72 1015.82 1015.88 1015.96 1016.06 1016.21 1016.38 1016.55 1016.68 1016.73
1005.77 1005.76 1005.71 1005.65 1005.60 1005.58 1005.59 1005.64 1005.75 1005.91 1006.13 1006.40 1006.70 1007.02 1007.34 1007.64 1007.91 1008.16 1008.40 1008.65 1008.93 1009.25 1009.63 1010.05 1010.49 1010.92 1011.33 1011.70 1012.03 1012.33 1012.63 1012.93 1013.28 1013.65 1014.05 1014.44 1014.81 1015.11 1015.34 1015.50 1015.60 1015.68 1015.76 1015.89 1016.06 1016.26 1016.47 1016.66 1016.76
1006.04 1005.98 1005.89 1005.79 1005.69 1005.60 1005.54 1005.50 1005.52 1005.60 1005.75 1005.97 1006.25 1006.58 1006.92 1007.27 1007.60 1007.90 1008.18 1008.46 1008.75 1009.06 1009.41 1009.80 1010.21 1010.62 1011.02 1011.39 1011.72 1012.03 1012.33 1012.64 1012.98 1013.35 1013.74 1014.12 1014.49 1014.80 1015.05 1015.23 1015.35 1015.45 1015.56 1015.71 1015.89 1016.13 1016.37 1016.60 1016.76
1006.27 1006.16 1006.02 1005.87 1005.72 1005.56 1005.41 1005.28 1005.18 1005.16 1005.23 1005.39 1005.65 1005.98 1006.37 1006.78 1007.17 1007.54 1007.89 1008.20 1008.52 1008.84 1009.18 1009.55 1009.94 1010.34 1010.72 1011.09 1011.42 1011.72 1012.01 1012.31 1012.63 1012.97 1013.34 1013.72 1014.08 1014.41 1014.69 1014.91 1015.08 1015.22 1015.36 1015.53 1015.73 1015.98 1016.25 1016.51 1016.71
1006.44 1006.28 1006.10 1005.91 1005.70 1005.46 1005.21 1004.96 1004.74 1004.60 1004.56 1004.64 1004.86 1005.19 1005.60 1006.07 1006.54 1007.00 1007.41 1007.79 1008.15 1008.50 1008.86 1009.24 1009.64 1010.04 1010.43 1010.79 1011.12 1011.42 1011.69 1011.96 1012.24 1012.55 1012.88 1013.24 1013.60 1013.96 1014.27 1014.54 1014.77 1014.97 1015.16 1015.35 1015.58 1015.84 1016.11 1016.38 1016.61
1006.54 1006.36 1006.17 1005.95 1005.68 1005.36 1004.99 1004.60 1004.23 1003.92 1003.74 1003.71 1003.85 1004.15 1004.57 1005.08 1005.63 1006.17 1006.67 1007.14 1007.57 1007.98 1008.39 1008.81 1009.24 1009.68 1010.09 1010.48 1010.82 1011.11 1011.36 1011.59 1011.83 1012.08 1012.37 1012.71 1013.07 1013.44 1013.80 1014.14 1014.44 1014.71 1014.95 1015.19 1015.43 1015.69 1015.96 1016.22 1016.46
1006.61 1006.45 1006.27 1006.04 1005.73 1005.32 1004.82 1004.26 1003.70 1003.20 1002.84 1002.65 1002.67 1002.89 1003.29 1003.81 1004.40 1005.02 1005.61 1006.17 1006.70 1007.20 1007.70 1008.19 1008.70 1009.20 1009.67 1010.11 1010.47 1010.78 1011.02 1011.21 1011.40 1011.60 1011.85 1012.15 1012.50 1012.89 1013.30 1013.71 1014.08 1014.42 1014.73 1015.01 1015.27 1015.52 1015.77 1016.02 1016.25
1006.72 1006.61 1006.46 1006.23 1005.89 1005.39 1004.76 1004.02 1003.25 1002.52 1001.93 1001.55 1001.40 1001.50 1001.82 1002.32 1002.93 1003.60 1004.27 1004.92 1005.55 1006.16 1006.76 1007.36 1007.97 1008.56 1009.13 1009.63 1010.06 1010.39 1010.64 1010.82 1010.97 1011.13 1011.33 1011.59 1011.93 1012.33 1012.78 1013.24 1013.68 1014.10 1014.46 1014.78 1015.06 1015.31 1015.54 1015.76 1015.97
1006.90 1006.86 1006.77 1006.57 1006.19 1005.62 1004.85 1003.93 1002.95 1001.99 1001.16 1000.54 1000.19 1000.13 1000.33 1000.76 1001.34 1002.01 1002.73 1003.46 1004.17 1004.89 1005.60 1006.32 1007.04 1007.76 1008.43 1009.03 1009.54 1009.93 1010.22 1010.41 1010.54 1010.67 1010.83 1011.06 1011.38 1011.77 1012.24 1012.74 1013.24 1013.71 1014.12 1014.48 1014.77 1015.02 1015.23 1015.42 1015.60
1007.20 1007.24 1007.20 1007.02 1006.63 1005.99 1005.11 1004.03 1002.85 1001.67 1000.60 999.75 999.19 998.93 998.98 999.29 999.80 1000.44 1001.17 1001.92 1002.70 1003.49 1004.30 1005.13 1005.97 1006.80 1007.59 1008.30 1008.91 1009.39 1009.73 1009.96 1010.11 1010.23 1010.37 1010.57 1010.86 1011.24 1011.71 1012.22 1012.75 1013.25 1013.70 1014.08 1014.38 1014.63 1014.82 1014.99 1015.15
1007.57 1007.67 1007.68 1007.52 1007.12 1006.43 1005.47 1004.28 1002.95 1001.59 1000.33 999.28 998.51 998.06 997.94 998.10 998.50 999.06 999.74 1000.48 1001.28 1002.11 1002.97 1003.88 1004.80 1005.73 1006.63 1007.46 1008.17 1008.75 1009.17 1009.47 1009.66 1009.80 1009.94 1010.13 1010.40 1010.75 1011.20 1011.70 1012.22 1012.73 1013.19 1013.57 1013.89 1014.13 1014.32 1014.48 1014.63
1007.96 1008.08 1008.11 1007.95 1007.54 1006.84 1005.84 1004.59 1003.17 1001.71 1000.33 999.13 998.20 997.59 997.29 997.30 997.56 998.01 998.60 999.28 1000.04 1000.86 1001.73 1002.67 1003.64 1004.64 1005.61 1006.53 1007.34 1008.02 1008.55 1008.93 1009.19 1009.38 1009.55 1009.74 1009.99 1010.31 1010.72 1011.18 1011.67 1012.16 1012.61 1012.99 1013.31 1013.55 1013.75 1013.91 1014.06
1008.25 1008.34 1008.33 1008.16 1007.75 1007.05 1006.06 1004.83 1003.42 1001.94 1000.52 999.25 998.23 997.49 997.06 996.92 997.03 997.35 997.82 998.40 999.07 999.83 1000.67 1001.58 1002.56 1003.57 1004.59 1005.56 1006.46 1007.23 1007.85 1008.34 1008.69 1008.96 1009.17 1009.38 1009.63 1009.93 1010.29 1010.71 1011.15 1011.59 1012.00 1012.37 1012.68 1012.94 1013.15 1013.33 1013.49
1008.30 1008.30 1008.23 1008.02 1007.60 1006.94 1006.01 1004.86 1003.54 1002.14 1000.77 999.52 998.47 997.68 997.16 996.89 996.87 997.05 997.38 997.84 998.40 999.07 999.83 1000.68 1001.61 1002.60 1003.61 1004.61 1005.55 1006.39 1007.10 1007.68 1008.14 1008.50 1008.79 1009.04 1009.31 1009.59 1009.92 1010.28 1010.66 1011.05 1011.42 1011.76 1012.07 1012.34 1012.57 1012.78 1012.98
1008.06 1007.93 1007.76 1007.48 1007.06 1006.44 1005.61 1004.58 1003.41 1002.16 1000.92 999.76 998.76 997.96 997.39 997.04 996.91 996.96 997.17 997.51 997.96 998.52 999.19 999.95 1000.81 1001.74 1002.71 1003.69 1004.64 1005.52 1006.30 1006.97 1007.53 1007.98 1008.36 1008.68 1008.98 1009.28 1009.58 1009.90 1010.23 1010.57 1010.90 1011.22 1011.53 1011.81 1012.07 1012.32 1012.56
Thickness
5818 5821 5822 5816 5809 5801 5785 5789 5796 5793 5793 5797 5797 5793 5786 5779 5774 5764 5783 5790 5789 5787 5783 5777 5774 5773 5772 5770 5769 5769 5768 5767 5767 5767 5766 5767 5766 5766 5765 5765 5765 5765 5764 5763 5763 5762 5761 5760 5759
5828 5826 5821 5818 5808 5788 5781 5793 5793 5793 5797 5800 5797 5794 5788 5781 5784 5782 5785 5787 5789 5787 5783 5778 5772 5771 5770 5769 5768 5767 5766 5766 5765 5765 5765 5765 5765 5764 5764 5763 5763 5763 5762 5762 5762 5761 5760 5759 5758
5831 5828 5822 5819 5804 5790 5785 5795 5795 5799 5803 5800 5794 5794 5787 5780 5783 5784 5788 5789 5789 5786 5783 5776 5772 5770 5768 5767 5765 5765 5764 5764 5763 5763 5763 5763 5763 5763 5762 5761 5761 5761 5761 5761 5761 5759 5758 5757 5757
5832 5829 5827 5816 5799 5801 5802 5802 5803 5800 5801 5801 5796 5788 5786 5787 5789 5790 5791 5791 5789 5786 5783 5776 5771 5768 5767 5765 5764 5763 5762 5762 5761 5761 5761 5761 5761 5761 5761 5760 5760 5761 5761 5760 5759 5758 5757 5756 5756
5837 5831 5820 5810 5803 5808 5813 5811 5809 5803 5798 5798 5797 5785 5780 5788 5794 5793 5791 5790 5788 5787 5784 5777 5770 5768 5766 5764 5763 5762 5761 5761 5760 5760 5760 5760 5759 5759 5759 5759 5759 5759 5759 5758 5757 5757 5757 5756 5755
5835 5834 5817 5804 5803 5810 5815 5817 5813 5805 5800 5799 5796 5787 5780 5789 5791 5791 5792 5790 5790 5787 5785 5777 5770 5768 5766 5764 5763 5762 5761 5760 5759 5759 5759 5759 5758 5758 5757 5757 5757 5757 5756 5756 5756 5756 5755 5755 5754
5833 5829 5816 5813 5807 5808 5814 5822 5815 5808 5801 5800 5802 5790 5784 5789 5792 5793 5792 5791 5790 5788 5785 5780 5776 5770 5767 5765 5763 5762 5761 5760 5759 5759 5758 5758 5758 5757 5756 5756 5756 5755 5755 5755 5754 5754 5754 5753 5753
5844 5836 5824 5819 5813 5810 5821 5822 5820 5814 5806 5811 5808 5793 5785 5790 5795 5794 5792 5790 5788 5787 5785 5782 5779 5775 5772 5768 5764 5762 5761 5760 5759 5759 5758 5758 5758 5757 5756 5756 5755 5754 5754 5753 5753 5753 5752 5752 5752
5847 5834 5821 5822 5818 5818 5826 5820 5820 5824 5814 5810 5810 5807 5803 5799 5797 5792 5789 5787 5785 5784 5784 5783 5781 5777 5775 5772 5766 5763 5761 5760 5760 5760 5759 5759 5761 5760 5757 5756 5754 5753 5753 5752 5752 5752 5751 5752 5751
5844 5831 5826 5835 5836 5831 5827 5824 5821 5816 5808 5805 5804 5805 5804 5799 5795 5791 5789 5786 5784 5783 5783 5782 5781 5778 5776 5773 5768 5766 5765 5763 5763 5762 5762 5762 5762 5761 5759 5754 5753 5752 5752 5751 5751 5751 5751 5753 5755
5844 5835 5839 5842 5845 5841 5831 5827 5829 5819 5808 5809 5805 5801 5801 5798 5795 5793 5792 5790 5789 5787 5784 5783 5781 5778 5776 5773 5770 5767 5766 5764 5763 5762 5762 5762 5762 5761 5760 5757 5755 5754 5753 5754 5752 5753 5755 5756 5756
5843 5844 5845 5845 5847 5841 5835 5832 5827 5823 5821 5826 5820 5813 5805 5800 5798 5796 5794 5793 5791 5788 5785 5785 5782 5777 5775 5773 5771 5768 5767 5765 5765 5762 5762 5762 5762 5761 5760 5758 5757 5756 5755 5754 5755 5754 5755 5755 5755
5842 5843 5847 5849 5847 5845 5839 5832 5828 5824 5829 5829 5822 5814 5808 5804 5802 5801 5799 5796 5793 5788 5786 5785 5782 5777 5773 5771 5770 5770 5768 5767 5765 5763 5762 5761 5761 5761 5759 5758 5756 5757 5756 5756 5754 5755 5754 5754 5754
5847 5846 5845 5847 5845 5843 5835 5832 5829 5826 5831 5825 5818 5814 5812 5808 5805 5801 5798 5795 5793 5790 5788 5786 5782 5778 5774 5771 5769 5769 5769 5765 5766 5763 5761 5760 5761 5759 5759 5757 5756 5757 5756 5757 5755 5755 5754 5754 5754
5851 5841 5839 5841 5843 5842 5838 5823 5827 5833 5831 5822 5818 5816 5814 5811 5808 5803 5801 5798 5795 5792 5790 5786 5783 5780 5776 5773 5771 5770 5769 5768 5766 5763 5761 5759 5760 5758 5758 5758 5757 5757 5756 5755 5754 5753 5754 5753 5753
5844 5836 5827 5835 5841 5841 5831 5817 5831 5837 5830 5822 5820 5817 5813 5812 5811 5809 5806 5802 5799 5795 5791 5787 5787 5782 5777 5774 5772 5772 5770 5768 5766 5764 5762 5760 5759 5758 5757 5758 5758 5756 5756 5755 5754 5754 5753 5752 5752
5832 5826 5827 5831 5840 5839 5831 5824 5834 5839 5833 5825 5822 5819 5815 5812 5812 5812 5810 5806 5802 5797 5793 5788 5787 5783 5779 5776 5773 5772 5770 5768 5766 5765 5763 5761 5760 5759 5758 5758 5758 5756 5756 5755 5755 5755 5752 5750 5750
5823 5828 5827 5827 5837 5835 5829 5830 5835 5838 5835 5829 5825 5823 5818 5816 5815 5815 5813 5810 5805 5800 5795 5791 5787 5784 5781 5777 5774 5772 5770 5769 5767 5766 5764 5762 5761 5759 5759 5758 5757 5756 5756 5754 5753 5751 5750 5749 5749
5834 5829 5826 5832 5841 5833 5829 5830 5835 5838 5834 5830 5827 5825 5822 5820 5822 5820 5816 5812 5807 5801 5796 5792 5789 5785 5782 5779 5776 5772 5770 5770 5769 5768 5765 5763 5762 5761 5759 5760 5757 5756 5755 5753 5753 5751 5749 5748 5749
5827 5822 5825 5831 5837 5831 5829 5831 5839 5839 5835 5834 5831 5828 5826 5824 5822 5819 5816 5813 5809 5803 5799 5795 5790 5788 5784 5782 5778 5776 5774 5772 5771 5770 5767 5765 5763 5761 5762 5759 5759 5757 5755 5752 5751 5750 5749 5749 5749
5822 5822 5824 5822 5827 5831 5826 5823 5832 5839 5840 5837 5836 5835 5832 5829 5824 5820 5816 5814 5811 5806 5802 5799 5794 5791 5787 5785 5781 5777 5773 5772 5771 5769 5768 5766 5765 5763 5761 5760 5759 5757 5756 5754 5751 5750 5748 5746 5748
5814 5830 5827 5822 5816 5817 5819 5808 5826 5836 5833 5833 5834 5835 5835 5833 5830 5826 5820 5816 5814 5811 5807 5802 5797 5792 5789 5786 5783 5778 5773 5771 5771 5770 5769 5767 5766 5764 5762 5760 5758 5757 5757 5754 5753 5753 5750 5747 5745
5822 5830 5824 5821 5816 5813 5817 5808 5823 5834 5827 5832 5835 5836 5837 5836 5834 5829 5825 5821 5818 5815 5810 5805 5798 5793 5790 5788 5784 5780 5777 5775 5774 5772 5769 5767 5766 5764 5763 5761 5758 5756 5756 5754 5752 5751 5749 5749 5747
5822 5817 5814 5815 5814 5795 5810 5806 5811 5830 5829 5834 5839 5838 5838 5837 5835 5832 5829 5824 5819 5816 5811 5806 5798 5794 5791 5787 5785 5781 5778 5775 5773 5770 5768 5767 5767 5765 5763 5761 5758 5756 5755 5753 5751 5750 5749 5748 5746
5812 5799 5786 5782 5787 5795 5815 5806 5814 5834 5839 5838 5838 5839 5839 5838 5835 5831 5827 5823 5819 5816 5812 5807 5800 5793 5791 5788 5785 5782 5779 5776 5772 5770 5768 5767 5767 5765 5762 5761 5758 5756 5754 5752 5751 5749 5748 5747 5744
5806 5804 5783 5771 5782 5801 5804 5801 5821 5838 5841 5842 5842 5841 5839 5837 5836 5832 5829 5825 5820 5816 5812 5808 5801 5795 5791 5787 5784 5782 5778 5777 5776 5772 5771 5768 5767 5766 5763 5760 5757 5755 5753 5752 5749 5749 5747 5745 5743
5798 5800 5812 5797 5793 5790 5803 5811 5821 5833 5832 5834 5835 5835 5834 5834 5834 5832 5829 5825 5821 5817 5812 5808 5802 5796 5791 5788 5784 5780 5778 5775 5773 5771 5769 5768 5765 5764 5761 5758 5755 5754 5751 5749 5747 5747 5745 5743 5742
5808 5806 5797 5788 5770 5771 5789 5798 5809 5816 5821 5826 5828 5828 5829 5830 5831 5830 5827 5824 5821 5818 5813 5808 5802 5795 5791 5786 5782 5779 5776 5774 5771 5769 5766 5765 5763 5761 5758 5755 5752 5751 5749 5747 5745 5744 5742 5740 5739
5789 5789 5790 5790 5789 5774 5775 5796 5824 5820 5821 5821 5822 5823 5824 5825 5826 5825 5823 5822 5819 5815 5811 5805 5799 5793 5788 5784 5780 5777 5773 5771 5768 5765 5763 5761 5759 5757 5754 5752 5749 5747 5746 5743 5741 5741 5739 5736 5735
5795 5792 5788 5775 5772 5779 5779 5794 5821 5820 5821 5818 5817 5817 5818 5819 5820 5819 5818 5816 5813 5809 5806 5801 5796 5791 5786 5782 5777 5774 5770 5767 5764 5762 5760 5758 5755 5754 5751 5749 5746 5745 5743 5741 5738 5736 5735 5734 5732